[[{"header":{"parameterUnit":"m.s-1","parameterCategory":1,"la1":30.2991,"la2":30.254,"lo1":-89.0895,"lo2":-89.0444,"dy":0.0017,"dx":0.0017,"nx":28,"ny":28,"refTime":"2023-11-01T21:00:00:Z","depth":0,"parameterNumber":2,"parameterNumberName":"U-component_of_WINDS"},"data":[0,0,0,0,0,0,0,0,0,0,0,0,0,0,0,0,0,0,0,0,0,0,0,0,0,0,0,0,0,0,0,0,0,0,0,0,0,0,0,0,0,0,0,0,0,0,0,0,0,0,0,0,0,0,0,0,0,0,-5.0662,-5.0662,0,-5.0716,-5.0716,-5.0717,-5.0501,-5.0495,-5.0488,-5.0482,-5.0539,-5.0546,-5.0554,0,0,0,0,0,0,0,0,0,0,0,0,0,-5.0372,-5.0378,-5.0662,-5.0663,-5.0663,-5.0716,-5.0716,-5.0717,-5.0502,-5.0495,-5.0487,-5.0479,-5.0537,-5.0545,-5.0554,0,0,0,0,0,0,0,0,0,0,0,0,0,-5.0469,-5.0381,-5.0662,-5.0562,-5.0554,-5.0716,-5.0716,-5.0717,-5.0504,-5.0494,-5.0485,-5.0476,-5.0534,-5.0545,-5.0556,-5.0816,0,0,-5.059,-5.0595,0,0,0,0,0,0,0,0,-5.0464,-5.048,-5.0576,-5.0569,-5.056,-5.0592,-5.0635,-5.0751,-5.0506,-5.0523,-5.0482,-5.0471,-5.0565,-5.0573,-5.0604,-5.0819,-5.0821,-5.0591,-5.0598,-5.0602,-5.0606,0,0,0,0,0,0,0,-5.0458,-5.0477,-5.0683,-5.0578,-5.0568,-5.0515,-5.0518,-5.0656,-5.0597,-5.0521,-5.0505,-5.0514,-5.0558,-5.0594,-5.0603,-5.0822,-5.059,-5.06,-5.0607,-5.0612,-5.1251,-5.1261,0,0,0,0,0,0,-5.0464,-5.0472,-5.0681,-5.0685,-5.0488,-5.0528,-5.0531,-5.0591,-5.0595,-5.0586,-5.0523,-5.0504,-5.0579,-5.0591,-5.0605,-5.0909,-5.0602,-5.0613,-5.0619,-5.1241,-5.1253,-5.1264,0,0,0,0,0,0,-5.0459,-5.0485,-5.0679,-5.0574,-5.0595,-5.0543,-5.0612,-5.0598,-5.0632,-5.0596,-5.0584,-5.057,-5.0572,-5.0589,-5.0764,-5.0908,-5.0618,-5.0628,-5.1229,-5.1244,-5.1259,-5.152,0,0,0,0,0,0,-5.0451,-5.0484,-5.0583,-5.0578,-5.0601,-5.084,-5.0621,-5.0606,-5.0652,-5.0629,-5.0637,-5.0629,-5.0566,-5.0749,-5.0776,-5.0918,-5.0637,-5.1215,-5.1236,-5.1254,-5.1498,-5.1542,-5.158,0,0,0,0,0,-5.0442,-5.0655,-5.0589,-5.0616,-5.0724,-5.0848,-5.0861,-5.0784,-5.0665,-5.0763,-5.0739,-5.0629,-5.0887,-5.0769,-5.0797,-5.0945,-5.1206,-5.123,-5.1252,-5.148,-5.1534,-5.1579,0,0,0,0,0,0,-5.0679,-5.0653,-5.0579,-5.0798,-5.0827,-5.0811,-5.0934,-5.0843,-5.0907,-5.0883,-5.0784,-5.0787,-5.098,-5.0979,-5.0848,-5.1196,-5.1026,-5.1056,-5.119,-5.124,-5.128,-5.1277,-5.0646,0,0,0,0,0,-5.0757,-5.086,-5.0831,-5.1026,-5.1044,-5.0988,-5.1038,-5.0976,-5.1002,-5.1013,-5.1002,-5.1032,-5.1119,-5.1179,-5.1258,-5.1496,-5.1495,-5.1612,-5.1653,-5.1686,-5.1714,-5.1838,-5.189,-5.134,-5.134,-5.1339,0,0,-5.0919,-5.0917,-5.0988,-5.1074,-5.1089,-5.1198,-5.0999,-5.1123,-5.1202,-5.1032,-5.1197,-5.119,-5.1216,-5.1425,-5.1515,-5.143,-5.1865,-5.1716,-5.1743,-5.1752,-5.1867,-5.1919,-5.1966,-5.1356,-5.1353,-5.135,0,0,-5.1269,-5.1279,-5.1442,-5.146,-5.1485,-5.1445,-5.1484,-5.1483,-5.1471,-5.1635,-5.1509,-5.1601,-5.1755,-5.1778,-5.1811,-5.2167,-5.2068,-5.2196,-5.241,-5.2532,-5.2576,-5.2614,-5.2741,-5.2787,-5.2223,-5.2223,-5.2224,0,-5.1468,-5.1626,-5.1537,-5.1669,-5.171,-5.1559,-5.1724,-5.1746,-5.1796,-5.1828,-5.173,-5.1918,-5.1926,-5.2136,-5.2223,-5.2254,-5.2296,-5.2195,-5.2577,-5.2614,-5.2648,-5.2768,-5.2816,-5.2239,-5.2237,-5.2235,-5.2234,0,-5.1868,-5.198,-5.2109,-5.216,-5.2215,-5.2363,-5.2295,-5.2362,-5.2294,-5.2264,-5.2432,-5.2435,-5.2511,-5.2556,-5.2491,-5.2757,-5.2703,-5.2593,-5.2421,-5.2717,-5.2828,-5.2873,-5.2261,-5.2255,-5.2251,-5.2247,0,0,-5.2372,-5.237,-5.2419,-5.2439,-5.2455,-5.2539,-5.2679,-5.2752,-5.2811,-5.285,-5.2964,-5.3096,-5.2994,-5.3031,-5.2967,-5.3074,-5.3356,-5.295,-5.2949,-5.3026,-5.3649,-5.3732,-5.3787,-5.3289,-5.3298,-5.3304,-5.3646,0,-5.2716,-5.2955,-5.2878,-5.312,-5.3221,-5.3078,-5.32,-5.3222,-5.3198,-5.328,-5.3251,-5.3347,-5.3205,-5.3225,-5.3326,-5.3301,-5.348,-5.3275,-5.3395,-5.3401,-5.3394,-5.3844,-5.3933,-5.4256,-5.3689,-5.3696,-5.3702,0,-5.315,-5.3204,-5.3457,-5.3453,-5.3492,-5.3603,-5.3663,-5.3743,-5.3765,-5.3739,-5.378,-5.3692,-5.3828,-5.3655,-5.3841,-5.3703,-5.3747,-5.3742,-5.3753,-5.3762,-5.357,-5.3866,-5.4357,-5.4406,-5.3769,-5.3764,-5.3759,0,-5.3492,-5.3629,-5.3796,-5.3818,-5.3818,-5.3899,-5.3903,-5.3915,-5.3963,-5.4016,-5.4046,-5.4114,-5.4151,-5.4206,-5.4139,-5.4019,-5.4335,-5.4156,-5.4317,-5.4319,-5.4391,-5.4388,-5.4897,-5.4419,-5.4419,-5.4418,-5.4417,0,-5.3884,-5.4044,-5.395,-5.4054,-5.4228,-5.4137,-5.4312,-5.4299,-5.4311,-5.4409,-5.4289,-5.4384,-5.429,-5.4375,-5.4324,-5.4485,-5.4503,-5.4486,-5.447,-5.4497,-5.4499,-5.4525,-5.4501,-5.443,-5.4428,-5.4425,-5.4423,0,-5.4297,-5.424,-5.4414,-5.4398,-5.4398,-5.4528,-5.4514,-5.4609,-5.4574,-5.47,-5.4724,-5.4671,-5.4765,-5.4703,-5.4799,-5.4764,-5.4975,-5.4928,-5.4968,-5.4956,-5.512,-5.5106,-5.5664,-5.5732,-5.5212,-5.5217,-5.5221,0,-5.4551,-5.4671,-5.4668,-5.4724,-5.4736,-5.4829,-5.4877,-5.4791,-5.4847,-5.4879,-5.497,-5.5054,-5.5116,-5.5274,-5.5244,-5.5316,-5.527,-5.546,-5.528,-5.5302,-5.5272,-5.5267,-5.5278,-5.5497,-5.5504,-5.5509,-5.5513,0,-5.5009,-5.4974,-5.5048,-5.5113,-5.5174,-5.5221,-5.5257,-5.5311,-5.5224,-5.5292,-5.5387,-5.5435,-5.5532,-5.5617,-5.5676,-5.5678,-5.5583,-5.5569,-5.561,-5.5639,-5.5657,-5.5649,-5.5068,-5.5557,-5.5553,-5.5549,-5.5547,-5.5545,-5.535,-5.5448,-5.5462,-5.5547,-5.5566,-5.5603,-5.569,-5.5666,-5.5744,-5.5815,-5.5759,-5.5872,-5.5888,-5.5958,-5.5973,-5.6059,-5.5982,-5.6042,-5.6057,-5.6073,-5.6096,-5.5643,-5.607,-5.6069,-5.6067,-5.6066,-5.6065,0,-5.5801,-5.5801,-5.5881,-5.5936,-5.6004,-5.5905,-5.594,-5.6003,-5.6104,-5.6127,-5.6191,-5.6299,-5.638,-5.6355,-5.6427,-5.6501,-5.6458,-5.6523,-5.6517,-5.6519,-5.6161,-5.6119,-5.6556,-5.6556,-5.6556,-5.6556,-5.6556,-5.6556,-5.6043,-5.6205,-5.6172,-5.6341,-5.634,-5.6449,-5.6477,-5.651,-5.6528,-5.6654,-5.6721,-5.6703,-5.6707,-5.6778,-5.6847,-5.6838,-5.687,-5.6951,-5.6926,-5.6593,-5.6544,-5.6498,-5.6457,-5.6959,-5.6959,-5.7276,-5.7279,-5.7281]},{"header":{"parameterUnit":"m.s-1","parameterCategory":1,"la1":30.2991,"la2":30.254,"lo1":-89.0895,"lo2":-89.0444,"dy":0.0017,"dx":0.0017,"nx":28,"ny":28,"refTime":"2023-11-01T21:00:00:Z","depth":0,"parameterNumber":3,"parameterNumberName":"V-component_of_WINDS"},"data":[0,0,0,0,0,0,0,0,0,0,0,0,0,0,0,0,0,0,0,0,0,0,0,0,0,0,0,0,0,0,0,0,0,0,0,0,0,0,0,0,0,0,0,0,0,0,0,0,0,0,0,0,0,0,0,0,0,0,-4.836,-4.8361,0,-4.8415,-4.8416,-4.8417,-4.8357,-4.8355,-4.8352,-4.835,-4.8404,-4.8407,-4.841,0,0,0,0,0,0,0,0,0,0,0,0,0,-4.8198,-4.8201,-4.836,-4.8361,-4.8362,-4.8415,-4.8416,-4.8417,-4.8357,-4.8355,-4.8352,-4.8349,-4.8402,-4.8407,-4.8411,0,0,0,0,0,0,0,0,0,0,0,0,0,-4.8262,-4.8202,-4.836,-4.8339,-4.8337,-4.8415,-4.8416,-4.8417,-4.8358,-4.8355,-4.8351,-4.8348,-4.8401,-4.8406,-4.8411,-4.8512,0,0,-4.8428,-4.843,0,0,0,0,0,0,0,0,-4.8259,-4.8268,-4.8341,-4.834,-4.8339,-4.8376,-4.8378,-4.8449,-4.8359,-4.835,-4.835,-4.8346,-4.8397,-4.8402,-4.842,-4.8515,-4.8517,-4.8428,-4.8431,-4.8434,-4.8435,0,0,0,0,0,0,0,-4.8254,-4.8265,-4.8382,-4.8342,-4.8341,-4.8324,-4.833,-4.8391,-4.8392,-4.835,-4.8346,-4.8354,-4.8396,-4.8415,-4.8421,-4.8518,-4.8428,-4.8433,-4.8436,-4.8438,-4.8694,-4.8697,0,0,0,0,0,0,-4.8253,-4.8262,-4.838,-4.8384,-4.829,-4.833,-4.8336,-4.8367,-4.8391,-4.8391,-4.8357,-4.8351,-4.8408,-4.8415,-4.8423,-4.8539,-4.8434,-4.8439,-4.8442,-4.869,-4.8695,-4.8699,0,0,0,0,0,0,-4.825,-4.8264,-4.8378,-4.8322,-4.8335,-4.8336,-4.8372,-4.837,-4.839,-4.8396,-4.8395,-4.8377,-4.8405,-4.8415,-4.849,-4.854,-4.8441,-4.8446,-4.8686,-4.8692,-4.8697,-4.8776,0,0,0,0,0,0,-4.8245,-4.8263,-4.8303,-4.8323,-4.8338,-4.8446,-4.8375,-4.8374,-4.8399,-4.8392,-4.8414,-4.8415,-4.8403,-4.8482,-4.8495,-4.8546,-4.845,-4.8682,-4.8689,-4.8695,-4.8769,-4.8783,-4.8796,0,0,0,0,0,-4.824,-4.8323,-4.8305,-4.832,-4.8389,-4.8449,-4.8458,-4.8444,-4.8404,-4.8443,-4.8446,-4.8414,-4.8533,-4.849,-4.8504,-4.8558,-4.8678,-4.8687,-4.8695,-4.8762,-4.878,-4.8795,0,0,0,0,0,0,-4.8309,-4.8326,-4.8306,-4.8399,-4.8423,-4.8439,-4.8488,-4.8464,-4.8499,-4.8491,-4.8471,-4.8476,-4.8555,-4.8564,-4.8516,-4.8654,-4.8599,-4.861,-4.8646,-4.8663,-4.8676,-4.8671,-4.8454,0,0,0,0,0,-4.8335,-4.8385,-4.8396,-4.8477,-4.849,-4.8487,-4.8513,-4.85,-4.8524,-4.8534,-4.8543,-4.8566,-4.8608,-4.8636,-4.8676,-4.877,-4.8772,-4.8813,-4.8827,-4.8838,-4.8847,-4.8894,-4.8911,-4.8726,-4.8725,-4.8725,0,0,-4.839,-4.8405,-4.8437,-4.8491,-4.8508,-4.8558,-4.8496,-4.8552,-4.8588,-4.8542,-4.8612,-4.862,-4.8644,-4.8728,-4.8765,-4.8738,-4.8899,-4.8848,-4.8857,-4.886,-4.8904,-4.8922,-4.8937,-4.8731,-4.873,-4.8729,0,0,-4.8513,-4.8532,-4.8599,-4.8617,-4.8644,-4.8641,-4.8657,-4.8676,-4.8679,-4.875,-4.8715,-4.8757,-4.8831,-4.8849,-4.8867,-4.8995,-4.8966,-4.9008,-4.9078,-4.9124,-4.9139,-4.9152,-4.9194,-4.921,-4.9018,-4.9018,-4.9018,0,-4.8577,-4.8652,-4.8637,-4.8694,-4.8717,-4.8678,-4.8744,-4.8763,-4.8801,-4.8817,-4.8785,-4.8875,-4.8889,-4.8975,-4.9006,-4.9024,-4.9039,-4.9005,-4.9138,-4.9151,-4.9163,-4.9203,-4.9219,-4.9023,-4.9023,-4.9022,-4.9022,0,-4.8727,-4.8779,-4.883,-4.8868,-4.8897,-4.8959,-4.895,-4.8981,-4.8965,-4.8965,-4.9035,-4.905,-4.909,-4.911,-4.9096,-4.9193,-4.9175,-4.9142,-4.9085,-4.9185,-4.9222,-4.9238,-4.903,-4.9028,-4.9027,-4.9026,0,0,-4.8897,-4.8923,-4.8942,-4.8957,-4.8982,-4.9021,-4.908,-4.9119,-4.9145,-4.9172,-4.9218,-4.9281,-4.9249,-4.927,-4.9257,-4.9298,-4.9393,-4.9259,-4.9259,-4.9281,-4.9498,-4.9521,-4.9539,-4.9375,-4.9378,-4.938,-4.9495,0,-4.9019,-4.9121,-4.9107,-4.9205,-4.925,-4.9213,-4.9263,-4.9283,-4.9284,-4.9321,-4.9321,-4.9365,-4.9322,-4.9334,-4.9372,-4.9374,-4.9436,-4.9366,-4.9415,-4.9417,-4.9408,-4.9559,-4.9584,-4.9691,-4.9509,-4.9512,-4.9514,0,-4.9175,-4.9207,-4.9308,-4.9323,-4.9342,-4.9388,-4.9421,-4.9458,-4.9479,-4.9476,-4.9499,-4.9477,-4.9533,-4.9477,-4.9552,-4.9504,-4.9524,-4.9527,-4.9531,-4.9533,-4.947,-4.9562,-4.9726,-4.9741,-4.9537,-4.9535,-4.9533,0,-4.9284,-4.9352,-4.9421,-4.9435,-4.9456,-4.9488,-4.9498,-4.9515,-4.9539,-4.9567,-4.9582,-4.9617,-4.9636,-4.9663,-4.965,-4.9611,-4.9726,-4.967,-4.9723,-4.9723,-4.9747,-4.9746,-4.9913,-4.9765,-4.9765,-4.9764,-4.9764,0,-4.942,-4.9483,-4.947,-4.9512,-4.958,-4.9563,-4.9631,-4.9636,-4.9651,-4.9691,-4.9662,-4.97,-4.9683,-4.9719,-4.971,-4.9771,-4.9781,-4.9778,-4.9774,-4.9779,-4.9779,-4.979,-4.9781,-4.9768,-4.9768,-4.9767,-4.9766,0,-4.9553,-4.9547,-4.9619,-4.9632,-4.9636,-4.9686,-4.9695,-4.9733,-4.9731,-4.9783,-4.9794,-4.979,-4.9831,-4.9822,-4.9868,-4.9861,-4.9937,-4.9926,-4.9931,-4.9927,-4.9979,-4.9973,-5.0158,-5.018,-5.002,-5.0021,-5.0023,0,-4.9639,-4.9686,-4.9703,-4.9728,-4.974,-4.9781,-4.9805,-4.9789,-4.9814,-4.984,-4.9874,-4.9913,-4.9943,-5.001,-5.001,-5.0044,-5.0031,-5.0093,-5.0036,-5.0038,-5.0028,-5.0024,-5.0027,-5.0104,-5.0106,-5.0107,-5.0109,0,-4.979,-4.9784,-4.982,-4.9854,-4.9882,-4.9908,-4.9931,-4.9953,-4.9939,-4.9968,-5.001,-5.0033,-5.0079,-5.0116,-5.0147,-5.0155,-5.0129,-5.0127,-5.014,-5.0145,-5.0144,-5.0142,-4.9959,-5.0122,-5.0121,-5.012,-5.0119,-5.0119,-4.99,-4.9939,-4.9956,-4.9995,-5.0011,-5.0032,-5.0068,-5.0069,-5.0104,-5.014,-5.0128,-5.0175,-5.0191,-5.023,-5.0241,-5.0276,-5.0253,-5.0273,-5.0278,-5.0282,-5.0287,-5.0141,-5.0282,-5.0282,-5.0282,-5.0281,-5.0281,0,-5.0047,-5.0056,-5.0093,-5.0125,-5.0155,-5.0129,-5.0152,-5.0178,-5.022,-5.0238,-5.0267,-5.0313,-5.0349,-5.0352,-5.0385,-5.0412,-5.0401,-5.0421,-5.0417,-5.0419,-5.0308,-5.0292,-5.0429,-5.0429,-5.0429,-5.0429,-5.0429,-5.0429,-5.0127,-5.019,-5.0186,-5.0255,-5.0263,-5.0309,-5.0324,-5.0342,-5.0356,-5.0409,-5.0438,-5.044,-5.0451,-5.0484,-5.0515,-5.0514,-5.0527,-5.0551,-5.0546,-5.0442,-5.0427,-5.0413,-5.0397,-5.0555,-5.0555,-5.0653,-5.0654,-5.0655]}]]